QPF
0.00 0.00 0.00 0.00 0.00 0.00 0.00 0.00 0.00 0.00 0.00 0.00 0.00 0.00 0.00 0.00 0.00 0.00 0.00 0.00 0.00 0.00 0.00 0.00 0.00 0.00 0.01 0.01 0.01 0.00 0.01 0.06
0.00 0.00 0.00 0.00 0.00 0.00 0.00 0.00 0.00 0.00 0.00 0.00 0.00 0.00 0.00 0.00 0.00 0.00 0.00 0.00 0.00 0.00 0.00 0.00 0.00 0.00 0.00 0.00 0.01 0.02 0.02 0.02
0.00 0.00 0.00 0.00 0.00 0.00 0.00 0.00 0.00 0.00 0.00 0.00 0.00 0.00 0.00 0.00 0.00 0.00 0.00 0.00 0.00 0.00 0.00 0.00 0.00 0.00 0.00 0.00 0.00 0.00 0.01 0.02
0.00 0.00 0.00 0.00 0.00 0.00 0.00 0.00 0.00 0.00 0.00 0.00 0.00 0.00 0.00 0.00 0.00 0.00 0.00 0.00 0.00 0.00 0.00 0.00 0.00 0.00 0.00 0.00 0.00 0.00 0.00 0.00
0.00 0.00 0.00 0.00 0.00 0.00 0.00 0.00 0.00 0.00 0.00 0.00 0.00 0.00 0.00 0.00 0.00 0.00 0.00 0.00 0.00 0.00 0.00 0.00 0.00 0.00 0.00 0.00 0.00 0.00 0.00 0.00
0.00 0.00 0.00 0.00 0.00 0.00 0.00 0.00 0.00 0.00 0.00 0.00 0.00 0.00 0.00 0.00 0.00 0.00 0.00 0.00 0.00 0.00 0.00 0.00 0.00 0.00 0.00 0.00 0.00 0.00 0.00 0.00
0.00 0.00 0.00 0.00 0.00 0.00 0.00 0.00 0.00 0.00 0.00 0.00 0.00 0.00 0.00 0.00 0.00 0.00 0.00 0.00 0.00 0.00 0.00 0.00 0.00 0.00 0.00 0.00 0.00 0.00 0.00 0.00
0.00 0.00 0.00 0.00 0.00 0.00 0.00 0.00 0.00 0.00 0.00 0.00 0.00 0.00 0.00 0.00 0.00 0.00 0.00 0.00 0.00 0.00 0.00 0.00 0.00 0.00 0.00 0.00 0.00 0.00 0.00 0.00
0.00 0.00 0.00 0.00 0.00 0.00 0.00 0.00 0.00 0.00 0.00 0.00 0.00 0.00 0.00 0.00 0.00 0.00 0.00 0.00 0.00 0.00 0.00 0.00 0.00 0.00 0.00 0.00 0.00 0.00 0.00 0.00
0.00 0.00 0.00 0.00 0.00 0.00 0.00 0.00 0.00 0.00 0.00 0.00 0.00 0.00 0.00 0.00 0.00 0.00 0.00 0.00 0.00 0.00 0.00 0.00 0.00 0.00 0.00 0.00 0.00 0.00 0.00 0.00
0.00 0.00 0.00 0.00 0.00 0.00 0.00 0.00 0.00 0.00 0.00 0.00 0.00 0.00 0.00 0.00 0.00 0.00 0.00 0.00 0.00 0.00 0.00 0.00 0.00 0.00 0.00 0.00 0.00 0.00 0.00 0.00
0.00 0.00 0.00 0.00 0.00 0.00 0.00 0.00 0.00 0.00 0.00 0.00 0.00 0.00 0.00 0.00 0.00 0.00 0.00 0.00 0.00 0.00 0.00 0.00 0.00 0.00 0.00 0.00 0.00 0.00 0.00 0.00
0.00 0.00 0.00 0.00 0.00 0.00 0.00 0.00 0.00 0.00 0.00 0.00 0.00 0.00 0.00 0.00 0.00 0.00 0.00 0.00 0.00 0.00 0.00 0.00 0.00 0.00 0.00 0.00 0.00 0.00 0.00 0.00
0.00 0.00 0.00 0.00 0.00 0.00 0.00 0.00 0.00 0.00 0.00 0.00 0.00 0.00 0.00 0.00 0.00 0.00 0.00 0.00 0.00 0.00 0.00 0.00 0.00 0.00 0.00 0.00 0.00 0.00 0.00 0.00
0.00 0.00 0.00 0.00 0.00 0.00 0.00 0.00 0.00 0.00 0.00 0.00 0.00 0.00 0.00 0.00 0.00 0.00 0.00 0.00 0.00 0.00 0.00 0.00 0.01 0.01 0.00 0.00 0.00 0.00 0.00 0.00
0.00 0.00 0.00 0.00 0.00 0.00 0.00 0.00 0.00 0.00 0.00 0.00 0.00 0.00 0.00 0.00 0.00 0.00 0.00 0.00 0.00 0.00 0.00 0.00 0.00 0.01 0.01 0.01 0.00 0.00 0.00 0.00
0.00 0.00 0.00 0.00 0.00 0.00 0.00 0.00 0.00 0.00 0.00 0.00 0.00 0.00 0.00 0.00 0.00 0.00 0.00 0.00 0.00 0.00 0.00 0.00 0.00 0.00 0.00 0.00 0.00 0.00 0.00 0.00
0.00 0.00 0.00 0.00 0.00 0.00 0.00 0.00 0.00 0.00 0.00 0.00 0.00 0.00 0.00 0.00 0.00 0.00 0.00 0.00 0.00 0.00 0.00 0.00 0.00 0.00 0.00 0.00 0.00 0.00 0.00 0.00
0.00 0.00 0.00 0.00 0.00 0.00 0.00 0.00 0.00 0.00 0.00 0.00 0.00 0.00 0.00 0.00 0.00 0.00 0.00 0.00 0.00 0.00 0.00 0.00 0.00 0.00 0.00 0.00 0.00 0.00 0.00 0.00
MSLP
1018.12 1018.23 1018.03 1017.75 1017.69 1017.59 1017.32 1017.01 1016.76 1016.24 1015.75 1015.12 1014.60 1014.59 1014.52 1014.69 1014.88 1015.10 1015.06 1014.65 1014.41 1014.00 1013.37 1013.16 1012.75 1012.81 1012.40 1011.93 1011.29 1011.13 1011.52 1011.62
1018.31 1018.50 1018.42 1018.23 1018.34 1018.15 1017.94 1017.70 1017.53 1016.97 1016.39 1015.97 1015.52 1015.52 1015.15 1015.04 1015.43 1015.72 1015.64 1015.31 1014.94 1014.35 1013.84 1013.55 1013.20 1012.79 1012.81 1012.67 1012.19 1011.47 1010.76 1010.84
1018.07 1018.31 1018.60 1018.77 1018.88 1018.84 1018.64 1018.50 1018.33 1018.05 1017.52 1017.23 1016.98 1016.54 1016.01 1016.00 1016.10 1015.99 1016.12 1015.95 1015.50 1014.91 1014.67 1014.16 1013.80 1013.32 1012.88 1012.52 1012.20 1012.08 1011.36 1010.92
1017.70 1018.32 1018.93 1019.45 1019.68 1019.70 1019.63 1019.61 1019.38 1019.17 1018.71 1017.87 1017.36 1016.82 1016.54 1016.31 1016.49 1016.27 1016.43 1016.31 1016.08 1015.74 1015.21 1014.75 1014.33 1013.81 1013.07 1012.93 1012.39 1011.99 1011.83 1011.30
1017.76 1018.35 1019.01 1019.47 1019.87 1020.06 1019.99 1020.00 1019.96 1019.81 1019.56 1018.97 1018.51 1017.83 1017.41 1017.50 1017.22 1016.99 1016.68 1016.50 1016.39 1016.15 1015.72 1015.34 1014.96 1014.35 1013.56 1013.44 1012.90 1012.38 1012.24 1011.66
1017.86 1018.60 1019.15 1019.59 1019.88 1020.06 1020.30 1020.25 1020.35 1020.39 1020.19 1019.97 1019.15 1018.72 1018.55 1018.13 1017.86 1017.61 1017.02 1016.60 1016.34 1016.30 1016.36 1016.28 1015.55 1015.24 1014.48 1014.36 1014.11 1013.18 1012.24 1011.38
1018.10 1018.88 1019.27 1019.67 1020.16 1020.45 1020.52 1020.35 1020.45 1020.54 1020.42 1020.35 1020.06 1019.55 1019.18 1018.56 1018.38 1018.10 1017.66 1017.26 1016.58 1016.31 1016.48 1016.46 1016.13 1015.63 1014.88 1014.64 1014.41 1013.78 1013.14 1012.61
1018.17 1018.81 1019.32 1019.92 1020.35 1020.63 1020.69 1020.69 1020.76 1020.86 1020.91 1020.95 1020.46 1020.28 1019.96 1019.29 1019.27 1018.87 1018.59 1017.83 1017.18 1016.85 1016.80 1016.62 1016.01 1015.55 1015.37 1015.01 1014.34 1013.82 1013.24 1012.44
1018.42 1019.17 1019.74 1020.21 1020.65 1021.00 1021.03 1021.18 1021.23 1021.34 1021.51 1021.53 1021.10 1020.93 1020.71 1020.10 1019.84 1019.64 1019.12 1018.68 1018.04 1017.67 1017.13 1016.68 1016.16 1015.98 1015.47 1014.86 1014.17 1013.63 1012.87 1012.25
1018.61 1019.41 1020.01 1020.46 1020.89 1021.38 1021.69 1021.79 1021.72 1021.94 1022.23 1022.10 1021.58 1021.36 1021.05 1020.63 1020.23 1019.96 1019.53 1019.16 1018.62 1017.94 1017.37 1016.56 1016.11 1015.79 1015.27 1014.72 1014.08 1013.40 1012.76 1012.24
1018.85 1019.47 1020.27 1020.70 1021.17 1021.56 1022.00 1022.24 1022.31 1022.47 1022.42 1022.38 1021.98 1021.70 1021.41 1021.02 1020.56 1020.25 1019.90 1019.43 1018.92 1018.16 1017.40 1016.66 1016.05 1015.49 1014.92 1014.42 1013.78 1013.08 1012.49 1011.74
1018.93 1019.66 1020.57 1021.05 1021.44 1021.97 1022.36 1022.56 1022.68 1022.64 1022.55 1022.38 1022.23 1021.95 1021.76 1021.31 1020.84 1020.50 1020.15 1019.65 1019.13 1018.42 1017.73 1016.93 1016.13 1015.37 1014.74 1014.12 1013.36 1012.62 1011.72 1011.03
1019.17 1019.92 1020.74 1021.26 1021.69 1022.19 1022.26 1022.49 1022.67 1022.92 1022.94 1022.72 1022.60 1022.42 1022.22 1021.84 1021.28 1020.96 1020.62 1020.02 1019.51 1018.91 1018.18 1017.30 1016.43 1015.64 1014.94 1014.22 1013.27 1012.40 1011.47 1010.64
1019.34 1020.15 1020.94 1021.54 1021.90 1022.23 1022.35 1022.61 1022.79 1022.96 1023.14 1023.03 1022.87 1022.87 1022.67 1022.49 1021.97 1021.57 1021.12 1020.51 1020.02 1019.27 1018.57 1017.83 1016.95 1016.06 1015.13 1014.26 1013.36 1012.71 1011.80 1010.63
1019.40 1019.84 1021.04 1021.72 1022.07 1022.44 1022.72 1023.11 1023.14 1023.20 1023.29 1023.42 1023.42 1023.20 1023.12 1022.97 1022.59 1022.18 1021.66 1021.19 1020.76 1019.96 1019.18 1018.45 1017.47 1016.60 1015.82 1014.77 1013.87 1013.09 1012.37 1011.29
1019.60 1020.36 1021.15 1021.84 1022.25 1022.75 1023.13 1023.54 1023.58 1023.75 1023.91 1024.11 1024.13 1023.90 1023.81 1023.40 1022.94 1022.64 1022.23 1021.79 1021.45 1020.68 1019.84 1018.99 1018.07 1017.16 1016.46 1015.56 1014.39 1013.75 1012.87 1011.85
1020.45 1021.01 1021.59 1022.44 1022.88 1023.21 1023.83 1024.18 1024.33 1024.46 1024.58 1024.73 1024.80 1024.51 1024.25 1023.89 1023.56 1023.26 1022.76 1022.32 1021.83 1021.48 1020.58 1019.71 1018.81 1017.99 1017.29 1016.29 1015.41 1014.55 1013.77 1012.72
1020.93 1021.59 1022.41 1023.17 1023.63 1024.02 1024.49 1024.84 1024.96 1025.11 1025.19 1025.20 1025.03 1024.88 1024.60 1024.37 1024.16 1023.80 1023.43 1023.04 1022.61 1021.86 1021.05 1020.30 1019.57 1019.01 1018.14 1017.24 1016.29 1015.55 1014.83 1013.90
1021.59 1022.40 1023.14 1023.86 1024.25 1024.73 1025.07 1025.33 1025.59 1025.60 1025.63 1025.58 1025.45 1025.35 1025.09 1024.87 1024.73 1024.39 1024.00 1023.59 1023.04 1022.44 1021.78 1021.32 1020.70 1020.12 1019.14 1018.09 1017.28 1016.54 1015.74 1015.18
Thickness
5597 5595 5596 5598 5599 5599 5600 5601 5601 5604 5606 5609 5612 5611 5611 5610 5611 5611 5613 5619 5621 5623 5624 5626 5628 5628 5633 5640 5647 5649 5647 5646
5585 5583 5583 5584 5582 5583 5584 5584 5584 5586 5590 5590 5590 5588 5591 5593 5590 5589 5590 5595 5599 5604 5607 5608 5612 5615 5614 5616 5623 5628 5640 5643
5576 5574 5572 5569 5566 5565 5565 5565 5564 5565 5568 5567 5567 5568 5570 5569 5567 5570 5570 5571 5576 5582 5585 5589 5592 5597 5599 5602 5608 5609 5618 5629
5567 5561 5553 5547 5543 5542 5542 5541 5541 5540 5542 5547 5549 5551 5552 5552 5549 5550 5549 5551 5554 5558 5562 5566 5571 5577 5584 5585 5590 5594 5596 5609
5555 5549 5541 5534 5528 5525 5523 5521 5519 5518 5517 5521 5522 5526 5528 5526 5529 5529 5531 5533 5534 5536 5541 5546 5550 5557 5565 5567 5572 5579 5581 5587
5543 5534 5527 5521 5517 5513 5508 5505 5502 5499 5499 5499 5504 5505 5506 5508 5509 5510 5514 5516 5518 5519 5521 5523 5530 5534 5543 5544 5547 5557 5568 5579
5529 5519 5515 5510 5503 5498 5496 5495 5491 5487 5486 5485 5486 5488 5489 5493 5493 5493 5495 5496 5501 5502 5502 5506 5511 5517 5525 5527 5530 5537 5544 5550
5519 5512 5505 5497 5491 5486 5483 5480 5477 5474 5471 5469 5471 5471 5472 5476 5474 5476 5477 5482 5485 5487 5487 5491 5498 5502 5505 5509 5516 5522 5528 5536
5506 5497 5491 5484 5478 5472 5468 5464 5462 5460 5456 5454 5456 5455 5456 5459 5458 5460 5463 5464 5467 5469 5473 5478 5484 5486 5491 5497 5505 5512 5519 5525
5496 5487 5479 5472 5466 5457 5450 5447 5446 5443 5439 5438 5441 5441 5442 5446 5446 5448 5451 5450 5452 5458 5461 5468 5473 5475 5480 5486 5493 5500 5506 5512
5482 5477 5467 5461 5453 5445 5437 5432 5430 5427 5427 5425 5426 5428 5429 5431 5434 5436 5436 5438 5440 5445 5450 5457 5463 5468 5473 5477 5483 5490 5495 5503
5470 5465 5454 5447 5440 5432 5425 5420 5417 5416 5415 5415 5414 5414 5415 5418 5420 5422 5423 5426 5428 5433 5438 5445 5452 5459 5462 5467 5472 5478 5485 5492
5459 5452 5443 5434 5427 5421 5417 5412 5408 5405 5402 5402 5401 5400 5400 5402 5406 5408 5409 5413 5415 5419 5424 5431 5437 5443 5448 5452 5459 5465 5473 5480
5447 5440 5430 5420 5415 5411 5408 5402 5399 5395 5392 5391 5390 5388 5388 5389 5391 5393 5395 5399 5401 5405 5409 5414 5420 5425 5431 5436 5442 5447 5454 5464
5440 5434 5418 5409 5404 5399 5394 5388 5387 5385 5383 5380 5378 5379 5377 5377 5379 5381 5384 5385 5386 5390 5394 5398 5404 5408 5412 5417 5422 5425 5429 5438
5428 5414 5407 5400 5394 5388 5382 5375 5374 5372 5369 5366 5365 5366 5366 5367 5370 5371 5372 5373 5372 5377 5380 5384 5387 5391 5393 5397 5402 5404 5410 5418
5405 5400 5395 5385 5378 5373 5366 5360 5357 5356 5353 5351 5350 5353 5354 5357 5358 5359 5361 5362 5363 5362 5366 5369 5372 5374 5375 5378 5380 5384 5388 5395
5393 5386 5377 5368 5361 5356 5350 5345 5342 5340 5338 5338 5340 5341 5344 5346 5347 5348 5349 5350 5351 5355 5359 5361 5362 5359 5359 5358 5360 5362 5365 5373
5379 5370 5362 5353 5348 5341 5336 5332 5329 5327 5326 5325 5327 5328 5333 5335 5335 5338 5340 5342 5345 5348 5350 5350 5349 5348 5349 5352 5350 5350 5351 5353